Station 44037 - Buoy M01 - Jordan Basin Image indicating link to RSS feed of recent meteorological observations for station 44037


Conditions at 44037 as of
(1:04 pm EDT)
1704 GMT on 05/24/2024:
     

Click on the graph icon in the table below to see a time series plot of the last five days of that observation.

5-day plot - Wind Direction Wind Direction (WDIR): SW ( 220 deg true )
5-day plot - Wind Speed Wind Speed (WSPD): 9.7 kts
5-day plot - Wind Gust Wind Gust (GST): 11.7 kts
5-day plot - Wave Height Wave Height (WVHT): 2.3 ft
5-day plot - Dominant Wave Period Dominant Wave Period (DPD): 5 sec
5-day plot - Atmospheric Pressure Atmospheric Pressure (PRES):29.70 in
5-day plot - Air Temperature Air Temperature (ATMP): 57.0 °F
5-day plot - Water Temperature Water Temperature (WTMP): 53.4 °F
5-day plot - Salinity Salinity (SAL): 31.70 psu
5-day plot - Visibility Visibility (VIS) (0 to 1.6 nmi): 1.6 nmi
5-day plot - Wind Speed at 10 Meters Wind Speed at 10 meters (WSPD10M): 11.7 kts
5-day plot - Wind Speed at 20 Meters Wind Speed at 20 meters (WSPD20M): 11.7 kts
5-day plot -  Wind Speed, Wind Gust and Atmospheric Pressure Combined plot of Wind Speed, Gust, and Air Pressure
Previous observations
TIME
(EDT)
5-day plot - Wind Direction
WDIR
 
5-day plot - Wind Speed
WSPD
kts
5-day plot - Wind Gust
GST
kts
5-day plot - Wave Height
WVHT
ft
5-day plot - Dominant Wave Period
DPD
sec
5-day plot - Average Wave Period
APD
sec
5-day plot - Mean Wave Direction
MWD
 
5-day plot - Atmospheric Pressure
PRES
in
5-day plot - Pressure Tendency
PTDY
in
5-day plot - Air Temperature
ATMP
°F
5-day plot - Water Temperature
WTMP
°F
5-day plot - Dew Point
DEWP
°F
5-day plot - Salinity
SAL
psu
5-day plot - Visibility
VIS
nmi
5-day plot - Tide (above MLLW)
TIDE
ft
2024-05-24 12:04 pmWSW 9.7 11.7 2.0 5--29.72- 57.2 53.4- 31.70 1.6-
2024-05-24 11:04 amWSW 7.8 9.7 2.3 5--29.74- 56.8 53.1- 31.70 1.6-
2024-05-24 10:04 am SW 5.8 7.8 2.6 5--29.76- 55.2 52.9- 31.70 1.6-
2024-05-24 09:04 amSSW 5.8 5.8 2.3 5--29.77- 54.5 52.5- 31.70 1.6-
2024-05-24 08:04 amWNW 3.9 5.8 2.6 5--29.77- 54.0 52.2- 31.70 1.6-
2024-05-24 07:04 amWNW 5.8 7.8 2.3 5--29.76- 54.3 52.0- 31.70 1.6-
2024-05-24 06:04 amWNW 7.8 9.7 2.6 5--29.75- 52.5 52.0- 31.70 1.6-
2024-05-24 05:04 amWNW 9.7 11.7 2.6 5--29.74- 53.2 52.0- 31.70 1.6-
2024-05-24 04:04 amWNW 5.8 7.8 3.3 5--29.73- 53.1 52.0- 31.70 1.6-
2024-05-24 03:04 am W 7.8 9.7 3.3 5--29.74- 53.2 52.2- 31.70 1.6-
2024-05-24 02:04 amWSW 9.7 11.7 3.6 5--29.73- 53.6 52.2- 31.70 1.6-
2024-05-24 01:04 am SW 13.6 15.5 3.9 6--29.73- 54.3 52.2- 31.70 1.6-
2024-05-24 12:04 amSSW 13.6 15.5 3.9 5--29.73- 53.2 52.2- 31.70 1.6-
2024-05-23 11:04 pmSSW 15.5 17.5 3.6 5--29.74- 53.8 52.2- 31.70 1.6-
2024-05-23 10:04 pmSSW 13.6 17.5 3.6 5--29.75- 53.8 52.2- 31.70 1.6-
2024-05-23 09:04 pm S 15.5 19.4 3.3 5--29.75- 53.6 52.2- 31.70 1.6-
2024-05-23 08:04 pm S 11.7 13.6 3.3 5--29.74- 54.0 52.2- 31.70 1.6-
2024-05-23 07:04 pm S 3.9 5.8 3.0 5--29.73- 55.6 52.3- 31.70 1.6-
2024-05-23 06:04 pm W 5.8 7.8 3.3 5--29.76- 54.9 52.3- 31.70 1.6-
2024-05-23 05:04 pm W 7.8 15.5 3.6 5--29.73- 55.9 52.2- 31.70 1.6-
2024-05-23 04:04 pm SW 15.5 17.5 3.6 5--29.75- 56.5 52.3- 31.70 1.6-
2024-05-23 03:04 pmSSW 13.6 15.5 3.6 5--29.78- 55.0 52.5- 31.70 1.6-
2024-05-23 02:04 pm SW 11.7 15.5 3.6 5--29.78- 55.0 52.5- 31.70 1.6-

Ocean Conditions at 44037 as of
(1:04 pm EDT)
1704 GMT on 05/24/2024:

These oceanographic data are displayed in rounded times.

     

Click on the graph icon in the table below to see a time series plot of the last five days of that observation.

Depth (DEPTH): 3.3 ft
5-day plot - Ocean Temperature Ocean Temperature (OTMP):53.42 °F
5-day plot - Salinity Salinity (SAL):31.70 psu
Previous observations
TIME
(EDT)
DEPTH
ft
5-day plot - Ocean Temperature
OTMP
°F
5-day plot - Conductivity
COND
mS/cm
5-day plot - Salinity
SAL
psu
5-day plot - Oxygen Concentration
O2%
%
5-day plot - Oxygen Concentration
O2PPM
ppm
5-day plot - Chlorophyll
CLCON
ug/l
5-day plot - Turbidity
TURB
FTU
5-day plot - pH
PH
 
5-day plot - Eh
EH
mv
2024-05-24 12:04 pm 3.353.42-31.70------
2024-05-24 11:04 am 3.353.06-31.70------
2024-05-24 10:04 am 3.352.88-31.70------
2024-05-24 09:04 am 3.352.52-31.70------
2024-05-24 08:04 am 3.352.16-31.70------
2024-05-24 07:04 am 3.351.98-31.70------
2024-05-24 06:04 am 3.351.98-31.70------
2024-05-24 05:04 am 3.351.98-31.70------
2024-05-24 04:04 am 3.351.98-31.70------
2024-05-24 03:04 am 3.352.16-31.70------
2024-05-24 02:04 am 3.352.16-31.70------
2024-05-24 01:04 am 3.352.16-31.70------
2024-05-24 12:04 am 3.352.16-31.70------
2024-05-23 11:04 pm 3.352.16-31.70------
2024-05-23 10:04 pm 3.352.16-31.70------
2024-05-23 09:04 pm 3.352.16-31.70------
2024-05-23 08:04 pm 3.352.16-31.70------
2024-05-23 07:04 pm 3.352.34-31.70------
2024-05-23 06:04 pm 3.352.34-31.70------
2024-05-23 05:04 pm 3.352.16-31.70------
2024-05-23 04:04 pm 3.352.34-31.70------
2024-05-23 03:04 pm 3.352.52-31.70------
2024-05-23 02:04 pm 3.352.52-31.70------